Retour au catalogue

COSMOS 1823 DEB

ActifLEO
NORAD 18728·DEBRIS·🇷🇺 Russia

Lancé Feb 20, 1987 depuis Plesetsk Cosmodrome

Loading…

Prochains Passages (prochaines 24 heures)

TLE

FraisSource: Space-Track

Époque: Sep 13, 2026, 10:35 UTC

1 18728U 87020F   26256.44134440  .00000073  00000-0  70579-3 0  9999
2 18728  73.6196 162.8609 0067146 312.7708 165.8331 12.36072458746769

Suivez COSMOS 1823 DEB en temps réel avec AllMySat

Download on the App Store